YV3043 SVVA-SVVL

Flight info

Callsign YV3043
Flight time N/A
Altitude 23000
Route NOSCA W14 BRM W8 VRA
Aircraft B350/M-SDCFG/C

Departure

Time 2026-04-17 03:15
Airport Arturo Michelena International Airport (SVVA)

Arrival

Time N/A
Airport Dr. Antonio Nicolás Briceño Airport (SVVL)
Time Latitude Longitude Altitude Speed Heading
2026-04-17 03:01 10.15467 -67.93732 1418 ft 0 kts 182°
2026-04-17 03:13 10.15460 -67.93734 1418 ft 4 kts 207°
2026-04-17 03:13 10.15423 -67.93776 1418 ft 11 kts 214°
2026-04-17 03:13 10.15355 -67.93825 1418 ft 14 kts 155°
2026-04-17 03:14 10.15327 -67.93640 1418 ft 68 kts 90°
2026-04-17 03:14 10.15296 -67.92979 1418 ft 109 kts 92°
2026-04-17 03:14 10.15243 -67.92079 1419 ft 145 kts 94°
2026-04-17 03:14 10.15168 -67.91008 1643 ft 159 kts 95°
2026-04-17 03:15 10.15093 -67.89999 2412 ft 126 kts 78°
2026-04-17 03:15 10.15325 -67.89147 2390 ft 135 kts 68°
2026-04-17 03:15 10.15615 -67.88202 2330 ft 136 kts 59°
2026-04-17 03:15 10.16018 -67.87332 2166 ft 145 kts 79°
2026-04-17 03:16 10.15764 -67.86378 2161 ft 140 kts 117°
2026-04-17 03:16 10.15042 -67.85716 2047 ft 144 kts 163°
2026-04-17 03:16 10.14207 -67.86046 1872 ft 133 kts 249°
2026-04-17 03:16 10.14344 -67.86936 1721 ft 125 kts 279°
2026-04-17 03:17 10.14561 -67.87777 1647 ft 124 kts 279°
2026-04-17 03:17 10.14769 -67.88596 1650 ft 117 kts 277°
2026-04-17 03:17 10.14921 -67.89410 1657 ft 114 kts 269°
2026-04-17 03:17 10.15091 -67.90166 1706 ft 113 kts 272°
2026-04-17 03:18 10.15221 -67.90980 1513 ft 120 kts 269°
2026-04-17 03:18 10.15229 -67.91754 1418 ft 95 kts 281°
2026-04-17 03:18 10.15253 -67.92271 1418 ft 48 kts 270°
2026-04-17 03:18 10.15273 -67.92529 1418 ft 13 kts 271°
2026-04-17 03:19 10.15273 -67.92537 1418 ft 0 kts 270°